Home > Weather > Whitstable > Past weeks

Flag for United Kingdom Weather for the Past 2 Weeks in Whitstable, England, United Kingdom

Now
62 °F

Cool.


Feels Like: 62 °F
Forecast: 53 / 67 °F
Wind: 9 mph from East

Location: Manston

Current Time: May 6, 2016 at 8:23:45 PM

Latest Report: May 6, 2016 at 7:00 PM


Visibility: 7 mi

Pressure: 29.80 "Hg

Humidity: 61%

Dew Point: 48 °F

Location of WhitstableLocation

Historic Weather in Whitstable — Graph

°F

Whitstable Temperature Yesterday

Maximum temperature yesterday: 62 °F (at 1:00 PM)
Minimum temperature yesterday: 46 °F (at 6:00 AM)
Average temperature yesterday: 54 °F

High & Low Weather Summary for the Past Weeks

 TemperatureHumidityPressure
High67 °F (May 6, 3:00 PM)99% (May 2, 9:00 AM)30.40 "Hg (May 2, 9:00 AM)
Low36 °F (Apr 26, 4:00 AM)40% (May 3, 5:00 PM)29.69 "Hg (Apr 26, 5:00 AM)
Average48 °F74%30.09 "Hg
* Reported Apr 21 7:00 PM — May 6 7:00 PM, Whitstable, Weather by CustomWeather, © 2016

Note: Actual official high and low records may vary slightly from our data, if they occured in-between our weather recording intervals... More about our weather records

Advertising

Whitstable Weather History for the Previous 24 Hours

Scroll right to see more
 ConditionsComfort  
Time TempWeatherWind HumidityBarometerVisibility
7:00 PM
Fri, May 6
62 °FCool.9 mph61%29.80 "Hg7 mi
6:00 PM65 °FMild.12 mph58%29.80 "Hg7 mi
5:00 PM65 °FMild.13 mph59%29.80 "Hg10 mi
4:00 PM66 °FMild.14 mph54%29.81 "Hg19 mi
3:00 PM67 °FMild.14 mph53%29.82 "Hg12 mi
2:00 PM66 °FMild.14 mph55%29.84 "Hg9 mi
12:00 PM62 °FCool.9 mph64%29.87 "Hg7 mi
11:00 AM61 °FCool.12 mph63%29.88 "Hg14 mi
9:00 AM58 °FCool.10 mph69%29.90 "Hg13 mi
8:00 AM56 °FCool.13 mph70%29.90 "Hg22 mi
7:00 AM54 °FCool.9 mph77%29.92 "Hg11 mi
6:00 AM50 °FCool.10 mph84%29.92 "Hg10 mi
5:00 AM49 °FCool.10 mph85%29.93 "Hg11 mi
4:00 AM48 °FCool.10 mph87%29.95 "Hg11 mi
3:00 AM47 °FCool.9 mph84%29.96 "Hg19 mi
2:00 AM49 °FCool.8 mph76%29.99 "Hg19 mi
1:00 AM51 °FCool.9 mph76%30.01 "Hg22 mi
12:00 AM52 °FCool.10 mph72%30.02 "Hg16 mi
11:00 PM
Thu, May 5
53 °FCool.13 mph62%30.02 "Hg19 mi
10:00 PM53 °FCool.13 mph58%30.04 "Hg28 mi
9:00 PM54 °FCool.15 mph54%30.05 "Hg25 mi
8:00 PM54 °FCool.13 mph55%30.05 "Hg28 mi
Weather by CustomWeather, © 2016

See weather overviewHow to use our weather pages